Weather History for Stillwater, OK

Change the Weather History Date:

Tuesday, February 5, 2013

  Actual Average Record
Temperature  
Mean Temperature 48 °F -  
Max Temperature 69 °F 48 °F 70 °F (2009)
Min Temperature 28 °F 27 °F 9 °F (2014)
Degree Days  
Heating Degree Days 16    
Moisture  
Dew Point 30 °F    
Average Humidity 61    
Maximum Humidity 92    
Minimum Humidity 22    
Precipitation  
Precipitation 0.00 in - - ()
Sea Level Pressure  
Sea Level Pressure 29.99 in    
Wind  
Wind Speed 2 mph (NE)    
Max Wind Speed 7 mph    
Max Gust Speed -    
Visibility 10 miles    
Events      
Averages and records for this station are not official NWS values.
T = Trace of Precipitation, MM = Missing Value Source: NWS Daily Summary

Daily Weather History Graph

Daily Weather History Graph

Search for Another Location

Airport:

Trip Planner

Search our weather history database for the weather conditions in past years. The results will help you decide how hot, cold, wet, or windy it might be!

Date:

Astronomy

Feb. 05, 2013 Rise Set
Actual Time 7:25 AM CST 5:59 PM CST
Civil Twilight 6:58 AM CST 6:26 PM CST
Nautical Twilight 6:28 AM CST 6:56 PM CST
Astronomical Twilight 5:58 AM CST 7:26 PM CST
Moon 3:05 AM CST (2/5) 1:21 PM CST (2/5)
Length of Visible Light 11h 27m
Length of Day
10h 33m
Waning Crescent, 26% of the Moon is Illuminated
Feb 5
Waning Crescent
Feb 10
New
Feb 17
First Quarter
Feb 25
Full
Mar 4
Last Quarter

Hourly Weather History & Observations

Time (CST) Temp. Windchill Dew Point Humidity Pressure Visibility Wind Dir Wind Speed Gust Speed Precip Events Conditions
12:53 AM 37.0 °F 33.3 °F 28.9 °F 73% 29.95 in 10.0 mi ENE 4.6 mph - N/A   Clear
1:53 AM 34.0 °F - 28.9 °F 82% 29.94 in 10.0 mi Calm Calm - N/A   Clear
2:53 AM 32.0 °F - 28.9 °F 88% 29.94 in 10.0 mi Calm Calm - N/A   Clear
3:53 AM 30.0 °F - 27.0 °F 88% 29.92 in 10.0 mi Calm Calm - N/A   Clear
4:53 AM 30.0 °F - 26.1 °F 85% 29.94 in 10.0 mi Calm Calm - N/A   Clear
5:53 AM 30.0 °F - 26.1 °F 85% 29.96 in 10.0 mi Calm Calm - N/A   Clear
6:53 AM 28.9 °F - 27.0 °F 92% 29.98 in 10.0 mi Calm Calm - N/A   Clear
7:53 AM 28.0 °F - 25.0 °F 88% 30.00 in 10.0 mi Calm Calm - N/A   Clear
8:53 AM 39.0 °F - 34.0 °F 82% 30.01 in 10.0 mi Calm Calm - N/A   Clear
9:53 AM 46.9 °F - 34.0 °F 61% 30.03 in 10.0 mi Variable 3.5 mph - N/A   Clear
10:53 AM 52.0 °F - 37.0 °F 57% 30.04 in 10.0 mi Variable 3.5 mph - N/A   Clear
11:53 AM 60.1 °F - 37.0 °F 42% 30.04 in 10.0 mi Variable 3.5 mph - N/A   Clear
12:53 PM 61.0 °F - 35.1 °F 38% 30.01 in 10.0 mi Calm Calm - N/A   Clear
1:53 PM 64.9 °F - 32.0 °F 29% 29.99 in 10.0 mi NW 4.6 mph - N/A   Clear
2:53 PM 66.0 °F - 28.0 °F 24% 29.99 in 10.0 mi Calm Calm - N/A   Clear
3:53 PM 69.1 °F - 28.0 °F 22% 29.99 in 10.0 mi Calm Calm - N/A   Clear
4:53 PM 66.9 °F - 28.0 °F 23% 29.98 in 10.0 mi North 6.9 mph - N/A   Clear
5:53 PM 59.0 °F - 28.9 °F 32% 29.99 in 10.0 mi NE 5.8 mph - N/A   Clear
6:53 PM 52.0 °F - 30.9 °F 45% 30.00 in 10.0 mi NE 6.9 mph - N/A   Clear
7:53 PM 50.0 °F - 30.9 °F 48% 30.01 in 10.0 mi ENE 6.9 mph - N/A   Clear
8:53 PM 43.0 °F - 30.9 °F 62% 30.02 in 10.0 mi Calm Calm - N/A   Clear
9:53 PM 42.1 °F - 30.0 °F 62% 30.03 in 10.0 mi Calm Calm - N/A   Clear
10:53 PM 39.0 °F 36.8 °F 30.0 °F 70% 30.03 in 10.0 mi East 3.5 mph - N/A   Clear
11:53 PM 37.0 °F - 30.0 °F 76% 30.03 in 10.0 mi Calm Calm - N/A   Clear